Miscellaneous Local Product
Issued by NWS Hastings, NE

Home | Current Version | Previous Version | Text Only | Print | Product List | Glossary On
Versions: 1 2 3 4 5 6 7 8 9 10 11 12 13 14 15 16 17 18 19 20 21 22 23 24 25 26 27 28 29 30 31 32 33 34 35 36 37 38 39 40 41 42 43 44 45 46 47 48 49 50
000
AXUS43 KGID 100102
MISGRI

GID CWA HOURLY WEATHER ROUNDUP
NATIONAL WEATHER SERVICE HASTINGS NE
800 PM CDT WED JUL 09 2014

NOTE: "FAIR" INDICATES FEW OR NO CLOUDS BELOW 12,000 FEET WITH NO
SIGNIFICANT WEATHER AND/OR OBSTRUCTIONS TO VISIBILITY.

...SOUTH CENTRAL NEBRASKA...

CITY           SKY/WX    TMP DP  RH WIND       PRES   REMARKS
GRAND ISLAND   CLOUDY    68  61  78 E15       29.99R
HASTINGS       TSTM      72  60  66 SE10G18   29.97F
KEARNEY        PTSUNNY   73  63  68 SE15      29.96F
ORD            LGT RAIN  63  61  93 SE15      29.96F
YORK           CLOUDY    66  64  94 E14       30.01S
AURORA         CLOUDY    67  65  93 E14G20    29.99R
LEXINGTON      MOSUNNY   82  60  48 S21       29.89F
HOLDREGE       CLOUDY    83  56  39 S5        29.97R
HEBRON         CLOUDY    80  63  55 NE15G21   30.01R

...NEBRASKA PANHANDLE...

CITY           SKY/WX    TMP DP  RH WIND       PRES   REMARKS
CHADRON        SUNNY     82  62  50 E13       29.91S
ALLIANCE       SUNNY     87  58  37 NE9       29.91S
SCOTTSBLUFF    SUNNY     92  54  27 NE9       29.90S HX  90
SIDNEY         CLOUDY    87  53  31 S6        29.95S

...WESTERN AND NORTH CENTRAL NEBRASKA...

CITY           SKY/WX    TMP DP  RH WIND       PRES   REMARKS
VALENTINE      MOSUNNY   70  59  68 E12       29.98F
AINSWORTH      MOSUNNY   64  59  85 E9        29.99S
ONEILL         PTSUNNY   64  59  83 SE3       30.00S
BROKEN BOW     MOSUNNY   72  63  73 E15G23    30.00R
IMPERIAL       MOSUNNY   85  60  42 S14       29.90S
NORTH PLATTE   PTSUNNY   77  68  73 SE7       29.91S
MCCOOK         MOSUNNY   87  61  41 S14G23    29.93R

...EASTERN NEBRASKA...

CITY           SKY/WX    TMP DP  RH WIND       PRES   REMARKS
NORFOLK        CLOUDY    67  61  81 S6        30.00F
SO SIOUX CITY  CLEAR     76  61  59 W7        29.98S
TEKAMAH        PTCLDY    75  63  66 W8        30.00R
ALBION         LGT RAIN  64  60  89 S9        30.00S
OMAHA EPPLEY   CLOUDY    80  58  46 S7        30.00S
OFFUTT AFB     CLOUDY    76  64  65 SW5       30.00S
MILLARD        CLOUDY    75  64  68 W5        30.01S
LINCOLN        CLOUDY    70  65  84 S3        30.01F
NEBRASKA CITY  LGT RAIN  73  65  78 S5        30.01F
BEATRICE       RAIN      67  63  86 NE15      30.03R
FALLS CITY     PTCLDY    76  65  68 E5        30.01R

...NORTHERN KANSAS...

CITY           SKY/WX    TMP DP  RH WIND       PRES   REMARKS
GOODLAND       MOSUNNY   83  62  49 S18       29.94F
HILL CITY      SUNNY     86  56  35 S15G23    29.94R
NORTON         PTCLDY    84  50  30 SE15      29.93R
PHILLIPSBURG   SUNNY     86  52  30 S10       29.94R
SMITH CENTER   SUNNY     84  54  34 SE15      29.94R
BELOIT         CLEAR     84  55  37 S9        29.93R
HAYS           SUNNY     84  55  37 S17       29.94F
RUSSELL        SUNNY     85  58  39 S15       29.93S
CONCORDIA      PTCLDY    83  61  47 SE7       29.95R
SALINA         CLEAR     87  60  40 SE16      29.94S
TOPEKA         PTCLDY    81  64  56 E7        29.99S



USA.gov is the U.S. government's official web portal to all federal, state and local government web resources and services.